Погода в Слуцке

Погода в Слуцке : погода сейчас, прогноз погоды и архив. Всё, что Вы хотите узнать о погоде в Слуцке!

Хотите узнать прогноз погоды в Слуцке? Тогда Вам сюда: Погода в Слуцке

Поиск расширенной информации на нашем сайте:

Полезная информация: Клинкерный фасадный облицовочный кирпич купить клинкерный кирпич.

Другие новости

Новости СМИ2

Главная страница сайта

Новости сайта

02.10.2013

Напоминаем, что на нашем новом сайте вы можете получить высокодетализированные прогнозы погоды по пунктам России, СНГ и мира (включающие важные для авиации метеовеличины, такие как направление и скорость ветра, видимость, явления погоды, количество и форма облачности, нижняя и верхняя граница облачности), а также ознакомиться с разнообразными материалами по авиационной метеорологии и подборкой полезных ссылок на эту тему.

Сайт Метеоцентр.Азия посвящён разработке технологий оптимизации авиаметеорологического обслуживания, включая проектирование и перспективное создание нескольких автоматизированных авиаметеорологических систем:
- система выпуска высокодетальных прогностических карт явлений погоды для нижнего воздушного пространства по России и ближнему зарубежью;
- система верификации прогнозов TAF (выпускаемых синоптиками официальных АМСГ РФ и ближнего зарубежья) и AUTOTAF (выпускаемых сайтом Метеоцентр.Азия) - выявление ошибок, онлайн-сопоставление с фактической погодой METAR, автоматическое внесение коррективов в прогнозы при резком отклонении фактической погоды от прогноза, подсчёт оправдываемости прогнозов по элементам и в целом;
- система обработки, анализа и отображения авиаметеорологической информации для применения провайдерами метеорологической информации.

Рекомендуем: Как выбрать свадебный торт свадебный.

Погода в Слуцке - сегодня

Время (UTC), дата Ветер
(°,м/с) 
Видим.   Явления Облачность Т
(°С)
Тd
(°С)
f(%) Тe
(°С)
Pmin
(гПа)
dP
(гПа)
Po
(мм)
O2
(г/м3)
Тmin Tmax R s Состояние
почвы
18 27.03.17 300 (СЗ) 5{12}  20000 м    1/0 
+7.6 +0.2 59 +6  1013.2  -0.2  745  292    +11.6       
21 27.03.17 270 (З) 18000 м    8/0 средняя 
[Ac und]
+6.8 +3 77 +5  1011.8  -1.3  744  292           
00 28.03.17 260 (З) 6{10}  15000 м    ясно 
+7.4 +4.1 80 +5  1009  -2.8  742  290           
03 28.03.17 290 (З) 8-11{11}  15000 м    ясно 
+6.7 +4.1 83 +4  1009  742  291           
06 28.03.17 310 (СЗ) 8-12{12}  22000 м    1/1 600 м 
[Sc]
+6.1 +1.6 73 +3  1011.4  2.3  744  293  +5         
09 28.03.17 350 (С) 8{14}  27000 м    1/1 600 м 
[Cu hum]
+8.6 -3 44 +6  1013.3  2.1  745  291           
12 28.03.17 330 (СЗ) 8-12{15}  30000 м    1/0 
+11.1 -2.5 38 +9  1013.5  0.3  746  289    -1.5      затоплена
водой 
15 28.03.17 340 (С) 8-12{15}  27000 м    ясно 
+10.5 -2.7 39 +9  1013.9  0.3  746  290           
18 28.03.17 330 (СЗ) 4{12}  20000 м    1/0 средняя 
[Ac trans]
+5.1 +0.7 73 +3  1015.3  1.1  747  295    +11.4       
21 28.03.17 310 (СЗ) 18000 м    ясно 
+2 -0.2 85 +1  1016.5  0.9  747  299           
00 29.03.17 320 (СЗ) 15000 м    ясно 
+0.8 -0.3 92 1016.8  0.3  747  300           
03 29.03.17 020 (С) 15000 м    8/0 верхняя 
[Cs]
+0.2 -2.5 82 +1  1017.6  0.6  748  301           
06 29.03.17 010 (С) 18000 м    9/0 средняя, верхняя 
[Ac trans|Ci sp]
+1.6 -3.5 69 +2  1017.4  748  300  -0.5         
09 29.03.17 120 (ЮВ) 19000 м    9/0 средняя 
[Ac trans]
+5.2 -4.9 48 +6  1016.1  -1  747  296           
12 29.03.17 160 (Ю) 20000 м    9/9 600 м средняя 
[Sc|Ac und]
+7.4 -2.5 49 +8  1013.2  -2.8  745  293           
15 29.03.17 060 (СВ) 17000 м    10/4 600 м средняя 
[Sc|As trans]
+8.4 +1.1 60 +8  1010.3  -2.6  743  290           
18 29.03.17 тихо ()   13000 м    9/9 600 м 
[Sc]
+6.1 +1.6 73 +6  1010.9  0.3  743  293    +9.4       
21 29.03.17 010 (С) 17000 м    9/9 600 м 
[Sc]
+4.2 +0.8 79 +3  1012.7  1.5  744  295           
00 30.03.17 010 (С) 21000 м    9/9 600 м 
[Sc]
+2.9 -2.9 66 1015.7  747  298           
03 30.03.17 360 (С) 23000 м    8/8 600 м 
[Sc]
+0.5 -3.1 77 -2  1019.5  3.6  749  302           
06 30.03.17 010 (С) 25000 м    ясно 
+0.8 -3.8 71 -2  1023.2  3.6  752  303  -1.1         
09 30.03.17 040 (СВ) 17000 м    1/0 
+4.8 -6.4 44 +4  1025.3  2.4  754  299           
12 30.03.17 350 (С) 25000 м    3/3 600 м 
[Cu hum]
+6.8 -6.5 38 +6  1025.8  0.6  754  297           
15 30.03.17 290 (З) 24000 м    3/3 600 м 
[Sc diur, vesp]
+7.2 -5.4 40 +6  1025.9  0.1  754  297           
18 30.03.17 200 (Ю) 15000 м    1/0 верхняя 
[Ci fib]
+3.6 -3.4 60 +3  1026.9  0.7  755  301    +8.1       
Время (UTC), дата Ветер
(°,м/с) 
Видим.   Явления Облачность Т
(°С)
Тd
(°С)
f(%) Тe
(°С)
Pmin
(гПа)
dP
(гПа)
Po
(мм)
O2
(г/м3)
Тmin Tmax R s Состояние
почвы

Для получения пояснительной информации подведите курсор к названию столбца.

ПОГОДА в Слуцке - архив

Всё, что Вы хотите узнать о погоде в Слуцке - удобно и подробно!

Выберите нужную дату (начиная с 1 января 2015* года) и нажмите кнопку "Найти".
Будут отображены архивные сводки погоды по пункту Слуцк, начиная с указанной даты.


Отображать данные в формате CSV (для использования в таблицах Excel)


Внимание! Наш архив погоды предназначен исключительно для личного некоммерческого использования в познавательных целях. Если Вам необходимы официальные справки о состоянии погоды (для производственных, юридических, коммерческих и т.п. целей), обращайтесь в органы Росгидромета.

*Примечание: данная дата относится к архиву по метеостанциям СССР (Россия, СНГ, Балтия).
Архив по метеостанциям Зарубежной Европы и Азии (кроме Китая) хранится 10 дней, по другим регионам земного шара (Китай, Африка, Америка, Австралия, Океания) - 1 день.

Слуцк - район местоположения метеостанции


Название, широта, долгота, высота метеостанции:
Слуцк 53°ш. 27.6°д. 162 м над ур. моря [Беларусь]

Дополнительная информация

В oтличие oт бoльшинства пoгoдных сайтoв мы публикуем пoдрoбную метеoинфoрмацию в детальнoм прoфессиoнальнoм фoрмате.

Характеристики температуры и влажнoсти вoздуха измеряются на высoте 2 м в тени вдали oт зданий и деревьев.
Скoрoсть ветра измеряется на высoте 10 м (на урoвне рoста челoвека скoрoсть ветра ниже в 1.5-2 раза). Если метеoстанция нахoдится в гoрoде или в лесу, тo скoрoсть ветра занижена на 2-4 м/с пo сравнению с oткрытым местoм. Скoрoсть ветра над акватoриями крупных рек и oзёр, а также на вершинах хoлмoв на 2-5 м/с выше, чем в oбычных услoвиях.
Атмoсфернoе давление в разных тoчках местнoсти мoжет значительнo oтличаться oт давления на метеoстанции, в зависимoсти oт услoвий рельефа (при пoдъёме на 10 м давление пoнижается примернo на 1 мм рт.ст.).